Vertical_Velocity
-3 -1 2 0 -1 -0 -1 -1 -2 -2 -1 -0 -3 -4 -2 -1 1 4 -5 1 4 -4 -1 4 -0 -8 -4 -0 -2 -8 -15 1 3 3 32 -2 -3 -9 -3 -1 1 -4 -0 -5 -5
0 -1 -2 -1 1 0 1 0 3 4 2 -1 -2 -1 0 -1 -1 -6 2 -3 -3 -2 -2 -3 -1 -6 -1 -3 -5 -12 -4 3 10 4 20 -12 -5 -6 3 7 2 -4 3 4 4
-0 0 0 -0 -1 -1 0 2 0 2 3 4 3 1 -2 0 2 0 1 1 -2 -2 -3 2 -8 -1 6 -13 11 2 -4 4 7 4 7 -2 -7 -10 -6 -2 3 -1 -4 1 -4
0 -1 -1 1 0 -0 -1 -1 -3 -3 -2 -2 -1 2 0 2 3 -5 -6 -1 -1 -0 -1 -3 -5 4 -0 1 -10 -17 -0 -3 18 6 -0 12 -7 -4 -8 7 -4 5 -1 -5 1
-2 -2 0 -1 -1 -0 -0 1 -1 3 1 -1 -4 -3 1 -4 26 -14 -1 -9 -3 5 2 3 -1 1 6 -2 -12 -16 15 -4 3 -3 6 6 -4 1 -9 -2 1 6 0 -1 -0
-1 -2 -2 -3 -3 -3 -4 -5 -4 -7 -5 -1 -4 -2 -2 23 -8 -4 4 5 -5 -1 -1 -2 7 -8 -5 8 -14 5 -2 -2 -3 7 8 -8 3 -28 13 2 -4 -11 6 25 9
-1 0 -2 -2 -2 -2 0 1 -4 -4 0 -4 -8 -6 -3 66 -1 -2 12 1 -2 -0 3 0 1 -12 10 -2 4 2 -12 -1 -2 9 13 -4 -30 -19 9 -4 -3 -6 0 2 5
1 0 1 0 -2 -3 4 4 -3 -3 6 -4 -2 -8 -34 31 -7 -2 -21 21 -11 4 6 -2 1 -3 -3 -1 -4 -5 -13 -7 18 4 17 -22 5 10 5 -4 1 2 -1 1 -1
-1 -1 -1 -2 -1 -1 -1 4 -5 -5 -3 -3 -3 -12 6 14 7 8 -18 26 -3 -1 5 -2 -9 4 -17 -2 -6 -10 5 3 4 4 6 -18 24 13 5 -2 7 -0 2 4 -2
-1 -2 -2 -4 -5 -5 6 0 -1 -7 -4 3 -0 -3 18 11 -1 20 3 -2 9 2 -6 -5 -5 -4 -5 -15 -13 17 2 -6 5 6 -6 -6 6 0 1 -8 1 -4 3 2 6
-2 1 1 -2 -1 -11 4 1 -22 -11 1 -1 -9 -4 13 14 -9 11 1 -1 0 1 2 10 -17 -13 29 4 15 -0 -9 -4 -0 10 -9 -4 -2 3 -1 -4 -1 1 3 0 -2
-5 -5 -6 1 -4 -8 -10 -7 -18 -24 -14 14 9 -12 16 7 -29 22 -0 4 -8 8 12 -20 -33 23 8 3 -6 -4 -4 2 4 4 -11 -1 -1 3 -2 -2 -0 4 2 -1 -3
-5 -6 -6 -5 5 2 1 -19 3 -22 -32 28 29 -0 8 11 -8 41 -47 11 -6 -7 6 4 15 12 5 5 -7 1 -2 7 6 9 -7 0 -0 -2 -5 -5 0 2 1 -3 -2
-2 -3 -5 -7 13 2 -15 12 3 -12 -31 12 -1 2 12 -16 23 -7 -15 2 -13 -0 24 -10 26 6 0 -4 1 -8 14 7 0 -4 -0 -4 -1 -2 -1 -5 5 -0 1 -9 -7
6 -6 -7 -25 -9 16 9 -4 3 2 -13 12 25 -4 11 1 8 11 -2 -15 -5 15 3 12 13 -1 -9 24 4 12 -1 9 9 -3 4 1 -3 6 2 -4 -1 10 -8 -6 -2
5 -1 -19 -14 9 -24 3 3 6 7 -23 8 27 12 2 -1 -9 5 4 -0 15 6 -1 12 7 9 23 12 -3 30 -4 4 7 1 -18 10 -0 -4 -1 -3 -0 19 -10 -7 -0
-2 -1 -9 -17 -13 -1 14 6 -1 2 10 -10 4 12 -3 -5 1 4 -7 -11 -8 5 -20 23 -5 8 4 -0 5 -6 -2 4 -8 -11 1 2 -5 6 -1 -2 11 -5 -29 -0 6
0 -10 10 -7 -2 3 10 2 -3 8 -3 -3 2 15 -5 8 1 5 8 15 5 13 2 -5 -20 -7 18 -2 19 1 -1 -8 -5 3 6 -4 -11 -5 11 11 8 -8 1 6 8
-6 5 -1 -2 -7 -1 6 1 2 -0 3 -5 5 2 8 10 -5 1 6 5 16 -2 16 -1 -23 15 1 13 14 8 -36 29 9 -2 -1 1 -2 6 -2 -0 -4 -4 0 -2 1
-10 -4 2 -4 7 -10 1 -1 2 -1 -0 -0 -4 3 -0 6 -8 1 12 -10 12 0 -4 12 -10 2 14 15 8 -6 14 -4 -10 -7 -4 -3 -5 0 -3 -0 -8 4 -5 -7 -2
-5 -7 5 1 -1 9 28 5 3 1 3 -7 34 -4 2 -4 -11 -1 4 8 2 7 -1 16 -4 -3 18 -25 -5 -6 3 -3 21 4 1 2 -2 2 -2 -2 2 3 -0 2 8
-0 -2 2 1 2 -0 22 10 8 3 -2 -4 -5 -4 -4 0 8 -7 -0 -3 -2 5 -2 6 7 -7 -1 19 12 -4 -21 -2 -5 -9 0 1 2 -3 -2 -2 5 7 4 5 3
-5 5 -5 4 6 4 12 10 -5 -3 3 14 -2 -2 -4 5 -8 3 -1 -12 -7 -1 12 11 -7 10 22 6 -9 -6 3 -4 5 9 -4 3 -2 4 2 -3 -1 3 6 3 4
-13 -11 11 2 4 2 -0 2 2 -3 -2 2 1 -2 -1 2 -2 -0 2 0 -6 5 3 -5 16 4 9 21 12 2 1 -5 -1 1 -4 -0 -2 1 2 13 2 7 8 4 2
-6 -0 -5 9 -0 6 -5 2 -4 -3 -8 -4 0 2 -3 4 -2 -1 -1 2 -6 1 -3 6 -3 4 -2 13 32 5 3 -4 -0 5 -7 2 1 -0 -3 7 -2 6 40 50 5
-7 -11 15 1 4 3 -2 -3 5 22 3 4 48 -2 -2 -1 -2 -1 1 -3 -5 16 7 12 -1 -2 1 0 1 13 7 -2 4 -3 -5 0 0 -3 4 -0 -2 0 -14 -6 4
-0 -4 -1 0 -1 2 3 4 -4 -0 1 -2 -2 -0 -1 3 -2 -3 4 1 -8 11 13 -3 -7 2 -2 -0 9 6 5 -1 3 4 3 3 11 -2 -3 -0 13 1 5 8 -5
Height
5852 5850 5848 5846 5845 5843 5842 5840 5838 5836 5834 5834 5835 5835 5834 5833 5831 5832 5829 5832 5830 5827 5825 5825 5825 5825 5825 5826 5828 5829 5832 5836 5840 5842 5848 5843 5844 5851 5854 5857 5853 5853 5852 5853 5856
5850 5848 5846 5844 5841 5840 5837 5836 5834 5833 5831 5829 5828 5827 5825 5826 5826 5825 5826 5823 5824 5822 5821 5818 5818 5818 5819 5819 5820 5821 5825 5828 5832 5833 5837 5835 5837 5839 5844 5847 5849 5846 5849 5849 5850
5848 5846 5843 5840 5838 5835 5833 5831 5829 5827 5825 5824 5823 5822 5820 5820 5819 5816 5814 5815 5813 5813 5812 5811 5811 5812 5811 5812 5812 5815 5818 5820 5822 5824 5825 5828 5829 5831 5833 5836 5840 5840 5842 5844 5847
5843 5840 5838 5835 5832 5830 5827 5825 5822 5820 5818 5815 5814 5813 5813 5813 5812 5806 5807 5806 5805 5804 5804 5803 5802 5802 5803 5804 5806 5807 5809 5811 5814 5814 5815 5819 5821 5823 5826 5832 5832 5834 5835 5838 5842
5838 5835 5831 5828 5825 5822 5820 5817 5814 5811 5809 5806 5805 5804 5804 5806 5800 5796 5798 5796 5795 5795 5795 5794 5793 5794 5795 5796 5795 5797 5802 5802 5803 5803 5807 5809 5814 5814 5817 5820 5825 5831 5831 5836 5837
5831 5828 5825 5821 5818 5815 5812 5809 5805 5802 5799 5797 5794 5794 5794 5797 5784 5783 5789 5787 5783 5785 5786 5786 5786 5784 5783 5785 5787 5789 5790 5791 5791 5793 5795 5796 5802 5804 5809 5810 5811 5819 5828 5833 5834
5824 5820 5816 5813 5810 5806 5802 5799 5795 5791 5789 5786 5783 5781 5782 5788 5773 5776 5776 5776 5774 5773 5773 5774 5774 5774 5777 5777 5777 5780 5779 5780 5781 5782 5784 5786 5791 5794 5800 5800 5804 5807 5816 5822 5824
5816 5811 5807 5802 5798 5793 5789 5786 5782 5778 5776 5772 5769 5767 5769 5770 5761 5762 5760 5763 5760 5760 5761 5761 5761 5763 5764 5767 5768 5769 5768 5768 5773 5777 5781 5781 5785 5788 5791 5793 5798 5803 5805 5812 5813
5806 5801 5796 5791 5785 5781 5777 5771 5765 5763 5761 5757 5755 5753 5758 5752 5748 5746 5744 5749 5746 5745 5745 5745 5747 5752 5753 5756 5757 5757 5759 5763 5767 5768 5769 5772 5776 5779 5783 5784 5790 5794 5797 5800 5804
5795 5789 5784 5778 5772 5767 5762 5755 5749 5746 5743 5740 5737 5738 5737 5735 5732 5730 5727 5729 5730 5728 5728 5729 5732 5737 5740 5741 5746 5749 5754 5755 5755 5761 5759 5763 5766 5771 5774 5773 5778 5781 5786 5789 5794
5783 5777 5771 5765 5757 5751 5747 5739 5732 5730 5727 5723 5720 5719 5715 5712 5714 5710 5708 5708 5709 5712 5712 5714 5719 5722 5729 5732 5738 5740 5741 5743 5746 5751 5750 5752 5756 5762 5765 5765 5768 5772 5776 5779 5783
5772 5765 5758 5751 5742 5733 5725 5716 5706 5701 5706 5704 5700 5696 5696 5683 5692 5694 5685 5689 5690 5698 5699 5698 5703 5713 5715 5719 5724 5727 5730 5731 5736 5739 5741 5746 5748 5752 5755 5756 5760 5764 5766 5769 5773
5755 5748 5740 5733 5722 5711 5699 5686 5677 5667 5670 5685 5678 5670 5661 5660 5670 5674 5660 5669 5671 5675 5681 5682 5695 5698 5702 5706 5710 5714 5719 5723 5727 5733 5733 5737 5738 5740 5746 5750 5752 5754 5759 5761 5764
5739 5729 5720 5712 5702 5684 5666 5658 5648 5631 5625 5652 5646 5637 5625 5626 5638 5639 5635 5645 5650 5659 5660 5665 5679 5681 5685 5692 5698 5702 5710 5715 5719 5723 5724 5728 5729 5733 5738 5744 5747 5750 5753 5753 5757
5719 5704 5693 5677 5674 5653 5637 5625 5616 5603 5592 5623 5619 5602 5599 5603 5607 5613 5611 5617 5630 5637 5636 5656 5661 5666 5671 5682 5687 5697 5700 5705 5712 5714 5719 5720 5721 5728 5732 5737 5742 5746 5745 5749 5751
5696 5677 5663 5652 5638 5621 5611 5601 5593 5589 5583 5602 5601 5588 5586 5585 5589 5597 5600 5605 5615 5617 5622 5637 5646 5651 5665 5671 5677 5686 5691 5696 5702 5705 5703 5712 5714 5718 5725 5732 5739 5741 5739 5743 5746
5673 5654 5633 5616 5613 5600 5593 5582 5579 5576 5574 5579 5578 5572 5572 5577 5584 5587 5591 5592 5597 5603 5609 5618 5624 5636 5647 5656 5665 5670 5677 5683 5689 5689 5690 5704 5707 5711 5721 5726 5733 5732 5732 5735 5740
5651 5629 5616 5599 5587 5580 5576 5570 5567 5565 5560 5561 5560 5558 5558 5564 5568 5573 5579 5578 5585 5594 5601 5607 5614 5626 5637 5643 5655 5660 5666 5672 5675 5681 5687 5697 5698 5706 5720 5721 5725 5724 5728 5730 5735
5630 5614 5598 5582 5573 5568 5564 5561 5558 5556 5555 5553 5553 5551 5554 5558 5560 5562 5565 5572 5580 5587 5594 5599 5607 5619 5627 5637 5646 5654 5656 5670 5676 5680 5685 5689 5694 5705 5706 5711 5714 5718 5721 5724 5728
5610 5596 5582 5571 5562 5557 5558 5556 5553 5552 5550 5549 5548 5548 5546 5549 5548 5554 5558 5564 5572 5579 5586 5593 5600 5607 5622 5629 5637 5644 5655 5661 5665 5669 5675 5682 5689 5696 5698 5701 5704 5710 5714 5717 5721
5590 5577 5567 5557 5553 5550 5550 5551 5550 5550 5547 5546 5543 5544 5543 5542 5541 5547 5555 5560 5564 5572 5579 5587 5594 5601 5610 5616 5627 5636 5643 5652 5662 5665 5669 5677 5683 5689 5692 5697 5701 5703 5706 5711 5716
5577 5562 5554 5547 5545 5541 5544 5542 5543 5545 5544 5544 5542 5540 5538 5537 5539 5541 5548 5550 5558 5565 5573 5577 5585 5595 5604 5613 5621 5626 5635 5645 5652 5657 5664 5671 5679 5682 5687 5690 5694 5699 5702 5706 5711
5565 5553 5541 5539 5535 5535 5536 5537 5540 5541 5540 5539 5538 5536 5535 5533 5536 5538 5541 5545 5552 5559 5565 5573 5581 5590 5597 5609 5615 5620 5631 5638 5648 5655 5658 5666 5672 5678 5683 5685 5688 5692 5695 5700 5703
5546 5542 5536 5530 5528 5529 5532 5535 5535 5537 5537 5535 5534 5534 5533 5531 5532 5535 5538 5542 5549 5552 5560 5565 5575 5585 5592 5601 5612 5619 5628 5635 5642 5648 5653 5660 5666 5672 5677 5680 5683 5687 5690 5693 5697
5535 5530 5524 5524 5522 5525 5528 5531 5534 5535 5534 5533 5532 5530 5529 5529 5527 5530 5534 5539 5548 5552 5559 5562 5572 5580 5592 5600 5606 5617 5624 5630 5635 5643 5649 5658 5662 5668 5672 5675 5679 5681 5680 5685 5691
5527 5522 5520 5516 5518 5521 5524 5529 5529 5526 5527 5530 5528 5526 5525 5524 5524 5527 5531 5539 5546 5550 5558 5562 5570 5578 5589 5595 5605 5613 5620 5627 5633 5638 5645 5652 5658 5662 5668 5671 5672 5678 5681 5683 5689
5521 5515 5512 5513 5516 5519 5522 5524 5525 5523 5523 5524 5523 5522 5520 5519 5520 5526 5529 5536 5545 5549 5554 5561 5567 5574 5586 5594 5602 5611 5618 5622 5630 5636 5642 5648 5654 5657 5661 5668 5672 5674 5677 5679 5683